Time,TemperatureF,DewpointF,PressureIn,WindDirection,WindDirectionDegrees,WindSpeedMPH,WindSpeedGustMPH,Humidity,HourlyPrecipIn,Conditions,Clouds,dailyrainin,SoftwareType,DateUTC
2013-03-01 00:02:00,50.0,-99.9,30.47,South,190,10.0,15.0,-999,-99.99,,,-99.99,,2013-03-01 08:02:00,
2013-03-01 00:12:00,50.0,-99.9,30.46,South,183,12.0,17.0,-999,-99.99,,,-99.99,,2013-03-01 08:12:00,
2013-03-01 00:22:00,50.0,-99.9,30.46,South,179,12.0,18.0,-999,-99.99,,,-99.99,,2013-03-01 08:22:00,
2013-03-01 00:33:00,50.0,-99.9,30.47,SSW,198,14.0,20.0,-999,-99.99,,,-99.99,,2013-03-01 08:33:00,
2013-03-01 00:43:00,50.0,-99.9,30.46,SSW,199,17.0,24.0,-999,-99.99,,,-99.99,,2013-03-01 08:43:00,
2013-03-01 00:53:00,50.0,-99.9,30.47,SSW,203,12.0,19.0,-999,-99.99,,,-99.99,,2013-03-01 08:53:00,
2013-03-01 01:02:00,50.0,-99.9,30.47,South,183,12.0,17.0,-999,-99.99,,,-99.99,,2013-03-01 09:02:00,
2013-03-01 01:12:00,50.0,-99.9,30.47,SSW,195,13.0,19.0,-999,-99.99,,,-99.99,,2013-03-01 09:12:00,
2013-03-01 01:22:00,50.0,-99.9,30.48,South,187,15.0,20.0,-999,-99.99,,,-99.99,,2013-03-01 09:22:00,
2013-03-01 01:32:00,50.0,-99.9,30.48,SSW,196,12.0,19.0,-999,-99.99,,,-99.99,,2013-03-01 09:32:00,
2013-03-01 01:42:00,50.0,-99.9,30.48,SSW,202,11.0,21.0,-999,-99.99,,,-99.99,,2013-03-01 09:42:00,
2013-03-01 01:53:00,50.0,-99.9,30.48,SSW,200,10.0,19.0,-999,-99.99,,,-99.99,,2013-03-01 09:53:00,
2013-03-01 02:02:00,50.0,-99.9,30.49,SSW,200,14.0,18.0,-999,-99.99,,,-99.99,,2013-03-01 10:02:00,
2013-03-01 02:12:00,50.0,-99.9,30.49,SSW,197,14.0,20.0,-999,-99.99,,,-99.99,,2013-03-01 10:12:00,
2013-03-01 02:22:00,50.0,-99.9,30.48,South,191,11.0,18.0,-999,-99.99,,,-99.99,,2013-03-01 10:22:00,
2013-03-01 02:32:00,50.0,-99.9,30.48,SSW,198,11.0,18.0,-999,-99.99,,,-99.99,,2013-03-01 10:32:00,
2013-03-01 02:43:00,50.0,-99.9,30.47,South,188,13.0,17.0,-999,-99.99,,,-99.99,,2013-03-01 10:43:00,
2013-03-01 02:53:00,50.0,-99.9,30.47,South,185,8.0,15.0,-999,-99.99,,,-99.99,,2013-03-01 10:53:00,
2013-03-01 03:02:00,50.0,-99.9,30.47,SSW,196,9.0,16.0,-999,-99.99,,,-99.99,,2013-03-01 11:02:00,
2013-03-01 03:12:00,50.0,-99.9,30.47,SSW,205,9.0,14.0,-999,-99.99,,,-99.99,,2013-03-01 11:12:00,
2013-03-01 03:23:00,50.0,-99.9,30.47,SSW,199,9.0,14.0,-999,-99.99,,,-99.99,,2013-03-01 11:23:00,
2013-03-01 03:32:00,50.0,-99.9,30.47,SSW,198,9.0,12.0,-999,-99.99,,,-99.99,,2013-03-01 11:32:00,
2013-03-01 03:42:00,50.0,-99.9,30.47,SSW,200,11.0,15.0,-999,-99.99,,,-99.99,,2013-03-01 11:42:00,
2013-03-01 03:53:00,50.0,-99.9,30.47,SSW,204,13.0,19.0,-999,-99.99,,,-99.99,,2013-03-01 11:53:00,
2013-03-01 04:02:00,50.0,-99.9,30.48,SSW,198,9.0,16.0,-999,-99.99,,,-99.99,,2013-03-01 12:02:00,
2013-03-01 04:11:00,50.0,-99.9,30.47,SSW,195,10.0,15.0,-999,-99.99,,,-99.99,,2013-03-01 12:11:00,
2013-03-01 04:22:00,50.0,-99.9,30.47,SSW,198,9.0,16.0,-999,-99.99,,,-99.99,,2013-03-01 12:22:00,
2013-03-01 04:33:00,50.0,-99.9,30.47,SSW,202,12.0,17.0,-999,-99.99,,,-99.99,,2013-03-01 12:33:00,
2013-03-01 04:42:00,50.0,-99.9,30.47,SSW,203,11.0,17.0,-999,-99.99,,,-99.99,,2013-03-01 12:42:00,
2013-03-01 04:52:00,50.0,-99.9,30.47,SSW,200,10.0,18.0,-999,-99.99,,,-99.99,,2013-03-01 12:52:00,
2013-03-01 05:01:00,50.0,-99.9,30.46,South,181,11.0,19.0,-999,-99.99,,,-99.99,,2013-03-01 13:01:00,
2013-03-01 05:12:00,51.0,-99.9,30.45,South,180,9.0,15.0,-999,-99.99,,,-99.99,,2013-03-01 13:12:00,
2013-03-01 05:22:00,51.0,-99.9,30.45,South,190,9.0,13.0,-999,-99.99,,,-99.99,,2013-03-01 13:22:00,
2013-03-01 05:32:00,51.0,-99.9,30.46,SSW,193,8.0,13.0,-999,-99.99,,,-99.99,,2013-03-01 13:32:00,
2013-03-01 05:42:00,51.0,-99.9,30.46,SSW,196,7.0,11.0,-999,-99.99,,,-99.99,,2013-03-01 13:42:00,
2013-03-01 05:52:00,51.0,-99.9,30.45,South,178,11.0,13.0,-999,-99.99,,,-99.99,,2013-03-01 13:52:00,
2013-03-01 06:02:00,51.0,-99.9,30.45,South,184,10.0,15.0,-999,-99.99,,,-99.99,,2013-03-01 14:02:00,
2013-03-01 06:12:00,51.0,-99.9,30.46,SSW,197,6.0,12.0,-999,-99.99,,,-99.99,,2013-03-01 14:12:00,
2013-03-01 06:22:00,51.0,-99.9,30.45,South,184,8.0,14.0,-999,-99.99,,,-99.99,,2013-03-01 14:22:00,
2013-03-01 06:32:00,51.0,-99.9,30.45,South,188,8.0,12.0,-999,-99.99,,,-99.99,,2013-03-01 14:32:00,
2013-03-01 06:42:00,51.0,-99.9,30.45,SSW,201,7.0,17.0,-999,-99.99,,,-99.99,,2013-03-01 14:42:00,
2013-03-01 06:52:00,51.0,-99.9,30.45,SSW,193,6.0,13.0,-999,-99.99,,,-99.99,,2013-03-01 14:52:00,
2013-03-01 07:02:00,51.0,-99.9,30.45,South,181,7.0,11.0,-999,-99.99,,,-99.99,,2013-03-01 15:02:00,
2013-03-01 07:11:00,51.0,-99.9,30.44,South,185,4.0,8.0,-999,-99.99,,,-99.99,,2013-03-01 15:11:00,
2013-03-01 07:21:00,51.0,-99.9,30.44,South,173,4.0,6.0,-999,-99.99,,,-99.99,,2013-03-01 15:21:00,
2013-03-01 07:32:00,51.0,-99.9,30.44,SE,137,4.0,6.0,-999,-99.99,,,-99.99,,2013-03-01 15:32:00,
2013-03-01 07:42:00,51.0,-99.9,30.44,ESE,119,4.0,5.0,-999,-99.99,,,-99.99,,2013-03-01 15:42:00,
2013-03-01 07:52:00,51.0,-99.9,30.44,ESE,117,4.0,6.0,-999,-99.99,,,-99.99,,2013-03-01 15:52:00,
2013-03-01 08:01:00,51.0,-99.9,30.45,East,83,2.0,4.0,-999,-99.99,,,-99.99,,2013-03-01 16:01:00,
2013-03-01 08:11:00,51.0,-99.9,30.45,ENE,72,1.0,2.0,-999,-99.99,,,-99.99,,2013-03-01 16:11:00,
2013-03-01 08:22:00,51.0,-99.9,30.45,East,91,2.0,2.0,-999,-99.99,,,-99.99,,2013-03-01 16:22:00,
2013-03-01 08:32:00,51.0,-99.9,30.46,SE,144,2.0,3.0,-999,-99.99,,,-99.99,,2013-03-01 16:32:00,
2013-03-01 08:42:00,51.0,-99.9,30.46,South,170,2.0,2.0,-999,-99.99,,,-99.99,,2013-03-01 16:42:00,
2013-03-01 08:52:00,51.0,-99.9,30.46,SSE,163,3.0,4.0,-999,-99.99,,,-99.99,,2013-03-01 16:52:00,
2013-03-01 09:01:00,51.0,-99.9,30.46,SE,135,3.0,3.0,-999,-99.99,,,-99.99,,2013-03-01 17:01:00,
2013-03-01 09:11:00,51.0,-99.9,30.46,SE,124,4.0,4.0,-999,-99.99,,,-99.99,,2013-03-01 17:11:00,
2013-03-01 09:21:00,51.0,-99.9,30.46,ESE,112,3.0,4.0,-999,-99.99,,,-99.99,,2013-03-01 17:21:00,
2013-03-01 09:32:00,51.0,-99.9,30.46,SSE,161,1.0,3.0,-999,-99.99,,,-99.99,,2013-03-01 17:32:00,
2013-03-01 09:42:00,51.0,-99.9,30.46,WSW,242,3.0,4.0,-999,-99.99,,,-99.99,,2013-03-01 17:42:00,
2013-03-01 09:52:00,51.0,-99.9,30.47,SSW,200,4.0,7.0,-999,-99.99,,,-99.99,,2013-03-01 17:52:00,
2013-03-01 10:02:00,51.0,-99.9,30.46,South,180,6.0,9.0,-999,-99.99,,,-99.99,,2013-03-01 18:02:00,
2013-03-01 10:12:00,52.0,-99.9,30.46,South,181,11.0,13.0,-999,-99.99,,,-99.99,,2013-03-01 18:12:00,
2013-03-01 10:22:00,52.0,-99.9,30.46,South,181,5.0,9.0,-999,-99.99,,,-99.99,,2013-03-01 18:22:00,
2013-03-01 10:32:00,52.0,-99.9,30.45,South,178,7.0,10.0,-999,-99.99,,,-99.99,,2013-03-01 18:32:00,
2013-03-01 10:42:00,53.0,-99.9,30.45,SSE,163,6.0,11.0,-999,-99.99,,,-99.99,,2013-03-01 18:42:00,
2013-03-01 10:52:00,53.0,-99.9,30.44,SSE,164,5.0,10.0,-999,-99.99,,,-99.99,,2013-03-01 18:52:00,
2013-03-01 11:02:00,53.0,-99.9,30.45,South,172,5.0,8.0,-999,-99.99,,,-99.99,,2013-03-01 19:02:00,
2013-03-01 11:11:00,54.0,-99.9,30.44,SSE,168,6.0,10.0,-999,-99.99,,,-99.99,,2013-03-01 19:11:00,
2013-03-01 11:22:00,54.0,-99.9,30.45,SSW,206,5.0,10.0,-999,-99.99,,,-99.99,,2013-03-01 19:22:00,
2013-03-01 11:32:00,53.0,-99.9,30.45,WSW,242,8.0,11.0,-999,-99.99,,,-99.99,,2013-03-01 19:32:00,
2013-03-01 11:42:00,53.0,-99.9,30.45,WSW,242,8.0,11.0,-999,-99.99,,,-99.99,,2013-03-01 19:42:00,
2013-03-01 11:52:00,52.0,-99.9,30.46,SSW,210,11.0,16.0,-999,-99.99,,,-99.99,,2013-03-01 19:52:00,
2013-03-01 12:01:00,52.0,-99.9,30.45,SSW,203,11.0,15.0,-999,-99.99,,,-99.99,,2013-03-01 20:01:00,
2013-03-01 12:11:00,52.0,-99.9,30.45,SSW,205,10.0,16.0,-999,-99.99,,,-99.99,,2013-03-01 20:11:00,
2013-03-01 12:22:00,52.0,-99.9,30.45,SSW,213,10.0,14.0,-999,-99.99,,,-99.99,,2013-03-01 20:22:00,
2013-03-01 12:32:00,52.0,-99.9,30.45,SSW,202,8.0,15.0,-999,-99.99,,,-99.99,,2013-03-01 20:32:00,
2013-03-01 12:42:00,53.0,-99.9,30.45,SSW,208,7.0,12.0,-999,-99.99,,,-99.99,,2013-03-01 20:42:00,
2013-03-01 12:52:00,53.0,-99.9,30.45,SSW,194,8.0,14.0,-999,-99.99,,,-99.99,,2013-03-01 20:52:00,
2013-03-01 13:02:00,53.0,-99.9,30.44,SSW,201,9.0,13.0,-999,-99.99,,,-99.99,,2013-03-01 21:02:00,
2013-03-01 13:11:00,53.0,-99.9,30.44,SSW,197,10.0,12.0,-999,-99.99,,,-99.99,,2013-03-01 21:11:00,
2013-03-01 13:22:00,53.0,-99.9,30.44,SSW,202,9.0,13.0,-999,-99.99,,,-99.99,,2013-03-01 21:22:00,
2013-03-01 13:32:00,53.0,-99.9,30.44,SSW,205,10.0,15.0,-999,-99.99,,,-99.99,,2013-03-01 21:32:00,
2013-03-01 13:42:00,53.0,-99.9,30.43,SSW,201,13.0,17.0,-999,-99.99,,,-99.99,,2013-03-01 21:42:00,
2013-03-01 13:52:00,53.0,-99.9,30.43,SSW,205,10.0,16.0,-999,-99.99,,,-99.99,,2013-03-01 21:52:00,
2013-03-01 14:01:00,53.0,-99.9,30.43,SSW,199,8.0,12.0,-999,-99.99,,,-99.99,,2013-03-01 22:01:00,
2013-03-01 14:12:00,53.0,-99.9,30.42,SSW,197,8.0,11.0,-999,-99.99,,,-99.99,,2013-03-01 22:12:00,
2013-03-01 14:22:00,53.0,-99.9,30.42,SSW,209,8.0,16.0,-999,-99.99,,,-99.99,,2013-03-01 22:22:00,
2013-03-01 14:32:00,53.0,-99.9,30.42,SSW,193,11.0,14.0,-999,-99.99,,,-99.99,,2013-03-01 22:32:00,
2013-03-01 14:42:00,53.0,-99.9,30.41,SSW,195,9.0,13.0,-999,-99.99,,,-99.99,,2013-03-01 22:42:00,
2013-03-01 14:52:00,54.0,-99.9,30.41,SSW,200,9.0,12.0,-999,-99.99,,,-99.99,,2013-03-01 22:52:00,
2013-03-01 15:01:00,53.0,-99.9,30.41,SSW,205,11.0,15.0,-999,-99.99,,,-99.99,,2013-03-01 23:01:00,
2013-03-01 15:11:00,53.0,-99.9,30.41,SW,216,11.0,13.0,-999,-99.99,,,-99.99,,2013-03-01 23:11:00,
2013-03-01 15:21:00,53.0,-99.9,30.40,SW,214,8.0,14.0,-999,-99.99,,,-99.99,,2013-03-01 23:21:00,
2013-03-01 15:32:00,53.0,-99.9,30.40,SSW,206,11.0,13.0,-999,-99.99,,,-99.99,,2013-03-01 23:32:00,
2013-03-01 15:42:00,53.0,-99.9,30.40,SW,214,11.0,14.0,-999,-99.99,,,-99.99,,2013-03-01 23:42:00,
2013-03-01 15:52:00,53.0,-99.9,30.40,SSW,204,8.0,15.0,-999,-99.99,,,-99.99,,2013-03-01 23:52:00,
2013-03-01 16:02:00,53.0,-99.9,30.40,SSW,205,9.0,13.0,-999,-99.99,,,-99.99,,2013-03-02 00:02:00,
2013-03-01 16:12:00,53.0,-99.9,30.39,SSW,206,7.0,11.0,-999,-99.99,,,-99.99,,2013-03-02 00:12:00,
2013-03-01 16:22:00,53.0,-99.9,30.39,SSW,203,8.0,13.0,-999,-99.99,,,-99.99,,2013-03-02 00:22:00,
2013-03-01 16:32:00,53.0,-99.9,30.39,SW,225,8.0,11.0,-999,-99.99,,,-99.99,,2013-03-02 00:32:00,
2013-03-01 16:42:00,53.0,-99.9,30.39,SW,235,7.0,10.0,-999,-99.99,,,-99.99,,2013-03-02 00:42:00,
2013-03-01 16:52:00,53.0,-99.9,30.39,SSW,212,8.0,12.0,-999,-99.99,,,-99.99,,2013-03-02 00:52:00,
2013-03-01 17:01:00,53.0,-99.9,30.39,SW,218,7.0,11.0,-999,-99.99,,,-99.99,,2013-03-02 01:01:00,
2013-03-01 17:11:00,52.0,-99.9,30.38,WSW,246,7.0,10.0,-999,-99.99,,,-99.99,,2013-03-02 01:11:00,
2013-03-01 17:21:00,52.0,-99.9,30.38,SW,218,8.0,12.0,-999,-99.99,,,-99.99,,2013-03-02 01:21:00,
2013-03-01 17:32:00,52.0,-99.9,30.38,SW,227,7.0,10.0,-999,-99.99,,,-99.99,,2013-03-02 01:32:00,
2013-03-01 17:42:00,52.0,-99.9,30.37,SSW,203,7.0,10.0,-999,-99.99,,,-99.99,,2013-03-02 01:42:00,
2013-03-01 17:52:00,52.0,-99.9,30.38,SW,221,5.0,10.0,-999,-99.99,,,-99.99,,2013-03-02 01:52:00,
2013-03-01 18:01:00,52.0,-99.9,30.38,South,188,3.0,5.0,-999,-99.99,,,-99.99,,2013-03-02 02:01:00,
2013-03-01 18:11:00,52.0,-99.9,30.37,SSW,197,2.0,5.0,-999,-99.99,,,-99.99,,2013-03-02 02:11:00,
2013-03-01 18:22:00,51.0,-99.9,30.37,West,263,-999.0,2.0,-999,-99.99,,,-99.99,,2013-03-02 02:22:00,
2013-03-01 18:32:00,51.0,-99.9,30.37,NE,43,1.0,2.0,-999,-99.99,,,-99.99,,2013-03-02 02:32:00,
2013-03-01 18:42:00,51.0,-99.9,30.37,SSW,194,1.0,2.0,-999,-99.99,,,-99.99,,2013-03-02 02:42:00,
2013-03-01 18:52:00,51.0,-99.9,30.37,North,9,1.0,2.0,-999,-99.99,,,-99.99,,2013-03-02 02:52:00,
2013-03-01 19:02:00,51.0,-99.9,30.37,NW,326,2.0,3.0,-999,-99.99,,,-99.99,,2013-03-02 03:02:00,
2013-03-01 19:11:00,51.0,-99.9,30.37,WSW,253,1.0,2.0,-999,-99.99,,,-99.99,,2013-03-02 03:11:00,
2013-03-01 19:22:00,50.0,-99.9,30.37,WNW,289,2.0,3.0,-999,-99.99,,,-99.99,,2013-03-02 03:22:00,
2013-03-01 19:32:00,50.0,-99.9,30.37,West,278,3.0,4.0,-999,-99.99,,,-99.99,,2013-03-02 03:32:00,
2013-03-01 19:42:00,50.0,-99.9,30.37,NW,318,1.0,3.0,-999,-99.99,,,-99.99,,2013-03-02 03:42:00,
2013-03-01 19:53:00,50.0,-99.9,30.37,North,11,1.0,2.0,-999,-99.99,,,-99.99,,2013-03-02 03:53:00,
2013-03-01 20:02:00,49.0,-99.9,30.37,NNE,25,1.0,3.0,-999,-99.99,,,-99.99,,2013-03-02 04:02:00,
2013-03-01 20:12:00,50.0,-99.9,30.37,WNW,299,0.0,1.0,-999,-99.99,,,-99.99,,2013-03-02 04:12:00,
2013-03-01 20:22:00,49.0,-99.9,30.37,North,8,1.0,2.0,-999,-99.99,,,-99.99,,2013-03-02 04:22:00,
2013-03-01 20:32:00,49.0,-99.9,30.36,East,95,2.0,3.0,-999,-99.99,,,-99.99,,2013-03-02 04:32:00,
2013-03-01 20:42:00,49.0,-99.9,30.36,ESE,120,2.0,3.0,-999,-99.99,,,-99.99,,2013-03-02 04:42:00,
2013-03-01 20:52:00,48.0,-99.9,30.36,NE,53,-999.0,1.0,-999,-99.99,,,-99.99,,2013-03-02 04:52:00,
2013-03-01 21:02:00,48.0,-99.9,30.36,SE,135,3.0,3.0,-999,-99.99,,,-99.99,,2013-03-02 05:02:00,
2013-03-01 21:12:00,48.0,-99.9,30.36,SE,125,4.0,4.0,-999,-99.99,,,-99.99,,2013-03-02 05:12:00,
2013-03-01 21:23:00,47.0,-99.9,30.36,ESE,121,3.0,4.0,-999,-99.99,,,-99.99,,2013-03-02 05:23:00,
2013-03-01 21:32:00,47.0,-99.9,30.36,ESE,110,4.0,4.0,-999,-99.99,,,-99.99,,2013-03-02 05:32:00,
2013-03-01 21:42:00,47.0,-99.9,30.36,ESE,111,4.0,4.0,-999,-99.99,,,-99.99,,2013-03-02 05:42:00,
2013-03-01 21:52:00,47.0,-99.9,30.36,East,80,5.0,5.0,-999,-99.99,,,-99.99,,2013-03-02 05:52:00,
2013-03-01 22:02:00,47.0,-99.9,30.36,East,90,6.0,6.0,-999,-99.99,,,-99.99,,2013-03-02 06:02:00,
2013-03-01 22:11:00,47.0,-99.9,30.36,ESE,102,5.0,6.0,-999,-99.99,,,-99.99,,2013-03-02 06:11:00,
2013-03-01 22:22:00,47.0,-99.9,30.36,ESE,112,5.0,6.0,-999,-99.99,,,-99.99,,2013-03-02 06:22:00,
2013-03-01 22:32:00,46.0,-99.9,30.36,ESE,112,4.0,5.0,-999,-99.99,,,-99.99,,2013-03-02 06:32:00,
2013-03-01 22:42:00,46.0,-99.9,30.36,East,93,3.0,4.0,-999,-99.99,,,-99.99,,2013-03-02 06:42:00,
2013-03-01 22:52:00,46.0,-99.9,30.36,ENE,74,3.0,4.0,-999,-99.99,,,-99.99,,2013-03-02 06:52:00,
2013-03-01 23:02:00,46.0,-99.9,30.35,East,96,3.0,3.0,-999,-99.99,,,-99.99,,2013-03-02 07:02:00,
2013-03-01 23:11:00,46.0,-99.9,30.35,ESE,112,5.0,5.0,-999,-99.99,,,-99.99,,2013-03-02 07:11:00,
2013-03-01 23:22:00,46.0,-99.9,30.35,SE,126,4.0,6.0,-999,-99.99,,,-99.99,,2013-03-02 07:22:00,
2013-03-01 23:32:00,46.0,-99.9,30.35,SE,124,6.0,7.0,-999,-99.99,,,-99.99,,2013-03-02 07:32:00,
2013-03-01 23:42:00,46.0,-99.9,30.35,ESE,111,6.0,8.0,-999,-99.99,,,-99.99,,2013-03-02 07:42:00,
2013-03-01 23:52:00,45.0,-99.9,30.34,ESE,120,7.0,8.0,-999,-99.99,,,-99.99,,2013-03-02 07:52:00,